This is the latest recevied weather packets stored in our database for station/object SP9KB-13. If no packets are shown the sender has not sent any weather packets the latest 1 day(s).
| Time | Temp. | Humidity | Pressure | Rain* | Wind** | Luminosity | Snow |
|---|---|---|---|---|---|---|---|
| 1777996013 | 23.33° C | 29% | 991.5 hPa | 0 mm | 0.89 m/s, 230° | - | - |
| 1777995712 | 23.33° C | 28% | 991.3 hPa | 0 mm | 0.45 m/s, 79° | - | - |
| 1777995412 | 23.33° C | 28% | 991.4 hPa | 0 mm | 0 m/s | - | - |
| 1777995111 | 22.78° C | 30% | 991.2 hPa | 0 mm | 0.45 m/s, 218° | - | - |
| 1777994810 | 22.78° C | 28% | 991.4 hPa | 0 mm | 0 m/s | - | - |
| 1777994510 | 22.78° C | 29% | 991.4 hPa | 0 mm | 0.89 m/s, 219° | - | - |
| 1777994209 | 22.78° C | 28% | 991.4 hPa | 0 mm | 2.68 m/s, 243° | - | - |
| 1777993909 | 22.78° C | 28% | 991.7 hPa | 0 mm | 0.45 m/s, 172° | - | - |
| 1777993608 | 23.33° C | 28% | 991.5 hPa | 0 mm | 0.45 m/s, 95° | - | - |
| 1777993307 | 23.33° C | 28% | 991.7 hPa | 0 mm | 0.89 m/s, 102° | - | - |
| 1777993007 | 23.89° C | 27% | 991.6 hPa | 0 mm | 2.24 m/s, 211° | - | - |
| 1777992706 | 23.89° C | 27% | 991.6 hPa | 0 mm | 1.34 m/s, 180° | - | - |
| 1777992406 | 24.44° C | 27% | 991.8 hPa | 0 mm | 2.24 m/s, 244° | - | - |
| 1777992105 | 24.44° C | 26% | 991.8 hPa | 0 mm | 1.34 m/s, 244° | - | - |
| 1777991804 | 24.44° C | 26% | 991.6 hPa | 0 mm | 3.13 m/s, 239° | - | - |
| 1777991504 | 25.56° C | 25% | 991.6 hPa | 0 mm | 3.58 m/s, 233° | - | - |
| 1777991203 | 25.56° C | 25% | 991.6 hPa | 0 mm | 0.89 m/s, 208° | - | - |
| 1777990903 | 25.56° C | 25% | 991.9 hPa | 0 mm | 1.79 m/s, 271° | - | - |
| 1777990602 | 25.56° C | 25% | 991.8 hPa | 0 mm | 0.45 m/s, 137° | - | - |
| 1777990302 | 25.56° C | 24% | 992 hPa | 0 mm | 1.34 m/s, 238° | - | - |
| 1777990001 | 25.56° C | 23% | 992.1 hPa | 0 mm | 2.24 m/s, 225° | - | - |
| 1777989700 | 26.11° C | 24% | 991.9 hPa | 0 mm | 0.89 m/s, 242° | - | - |
| 1777989400 | 26.11° C | 23% | 992.1 hPa | 0 mm | 0 m/s | - | - |
| 1777989099 | 26.11° C | 23% | 992.2 hPa | 0 mm | 1.34 m/s, 263° | - | - |
| 1777988798 | 25.56° C | 26% | 992 hPa | 0 mm | 1.34 m/s, 195° | - | - |
* Rain latest hour (hover to see other rain measurements)
** Current wind speed in m/s (hover to see current wind gust speed)